Location: Unspecified
(0.0000°N, 0.0000°E)
Time: 20:39:14
(UTC+00:00)

Envisat - Pass Details

Date: 26 May 2023
Orbit: 763 x 765 km, 98.2° (Epoch: 05 June)

Event Time Altitude Azimuth Distance (km) Brightness Sun altitude
Rises 04:19:48 0° 345° (NNW) 3,210 6.3 -22.6°
Reaches altitude 10° 04:22:38 10° 329° (NNW) 2,288 5.4 -21.9°
Enters shadow 04:24:07 16° 314° (NW) 1,923 4.8 -21.6°
